SLI1415 MMTM-MMMX

Flight info

Callsign SLI1415
Flight time 0h 52m
Altitude 32000
Route TAM1A TAM UT102 PAZ UT154 ENAGA ENAGA3A
Aircraft E190/M-SDE3GILORVW/S

Departure

Time 2026-04-14 13:31
Airport General Francisco Javier Mina International Airport (MMTM)

Arrival

Time 2026-04-14 14:23
Airport Mexico City Benito Juárez International Airport (MMMX)
Time Latitude Longitude Altitude Speed Heading
2026-04-14 13:11 22.28951 -97.86889 100 ft 0 kts 235°
2026-04-14 13:24 22.28952 -97.86886 100 ft 2 kts 234°
2026-04-14 13:24 22.28962 -97.86871 100 ft 2 kts 238°
2026-04-14 13:25 22.28970 -97.86855 98 ft 2 kts 250°
2026-04-14 13:25 22.28970 -97.86838 97 ft 2 kts 316°
2026-04-14 13:26 22.28963 -97.86831 99 ft 0 kts 328°
2026-04-14 13:27 22.28964 -97.86833 99 ft 3 kts 328°
2026-04-14 13:27 22.29043 -97.86891 98 ft 24 kts 324°
2026-04-14 13:28 22.29129 -97.86920 99 ft 10 kts 45°
2026-04-14 13:28 22.29240 -97.86883 99 ft 23 kts 355°
2026-04-14 13:28 22.29405 -97.86897 98 ft 25 kts 355°
2026-04-14 13:28 22.29574 -97.86938 98 ft 26 kts 325°
2026-04-14 13:29 22.29736 -97.87060 99 ft 29 kts 325°
2026-04-14 13:29 22.29903 -97.87186 99 ft 30 kts 325°
2026-04-14 13:29 22.30077 -97.87318 99 ft 30 kts 324°
2026-04-14 13:29 22.30152 -97.87435 99 ft 8 kts 326°
2026-04-14 13:30 22.30183 -97.87404 99 ft 6 kts 103°
2026-04-14 13:30 22.30160 -97.87381 99 ft 0 kts 144°
2026-04-14 13:30 22.30153 -97.87376 99 ft 4 kts 144°
2026-04-14 13:30 22.29986 -97.87249 99 ft 64 kts 145°
2026-04-14 13:31 22.29430 -97.86829 98 ft 128 kts 144°
2026-04-14 13:31 22.28661 -97.86233 649 ft 129 kts 144°
2026-04-14 13:31 22.27847 -97.85610 946 ft 173 kts 143°
2026-04-14 13:31 22.26775 -97.84757 1461 ft 196 kts 143°
2026-04-14 13:32 22.25699 -97.83842 2464 ft 198 kts 141°
2026-04-14 13:32 22.24654 -97.82891 3404 ft 200 kts 141°
2026-04-14 13:32 22.23571 -97.81919 4234 ft 210 kts 141°
2026-04-14 13:32 22.22379 -97.80877 4925 ft 228 kts 142°
2026-04-14 13:33 22.21050 -97.79730 5499 ft 258 kts 142°
2026-04-14 13:33 22.19616 -97.78475 6414 ft 270 kts 138°
2026-04-14 13:33 22.18555 -97.76797 7463 ft 277 kts 110°
2026-04-14 13:33 22.18344 -97.74725 8556 ft 282 kts 84°
2026-04-14 13:34 22.20291 -97.71062 10570 ft 303 kts 35°
2026-04-14 13:34 22.22292 -97.70217 11287 ft 321 kts
2026-04-14 13:34 22.24547 -97.70496 11986 ft 339 kts 340°
2026-04-14 13:35 22.26508 -97.71945 12845 ft 351 kts 313°
2026-04-14 13:35 22.27757 -97.74232 13869 ft 359 kts 293°
2026-04-14 13:35 22.28333 -97.76880 14782 ft 367 kts 279°
2026-04-14 13:35 22.28496 -97.79656 15670 ft 375 kts 269°
2026-04-14 13:36 22.27858 -97.82405 16537 ft 385 kts 244°
2026-04-14 13:36 22.26207 -97.84687 17412 ft 391 kts 220°
2026-04-14 13:36 22.23823 -97.86109 18250 ft 396 kts 197°
2026-04-14 13:36 22.21098 -97.86484 18974 ft 397 kts 175°
2026-04-14 13:37 22.18373 -97.85960 19661 ft 399 kts 166°
2026-04-14 13:37 22.15672 -97.85210 20312 ft 404 kts 165°
2026-04-14 13:37 22.12933 -97.84430 20976 ft 407 kts 165°
2026-04-14 13:37 22.10174 -97.83655 21639 ft 411 kts 165°
2026-04-14 13:38 22.07398 -97.82869 22301 ft 415 kts 165°
2026-04-14 13:38 22.04601 -97.82050 22926 ft 419 kts 165°
2026-04-14 13:38 22.01788 -97.81187 23525 ft 422 kts 164°
2026-04-14 13:38 21.98963 -97.80276 24053 ft 425 kts 164°
2026-04-14 13:39 21.96167 -97.79336 24572 ft 427 kts 163°
2026-04-14 13:39 21.93339 -97.78339 25098 ft 428 kts 162°
2026-04-14 13:39 21.90514 -97.77296 25583 ft 430 kts 162°
2026-04-14 13:39 21.87665 -97.76285 26035 ft 432 kts 166°
2026-04-14 13:40 21.84742 -97.75500 26513 ft 433 kts 168°
2026-04-14 13:40 21.81794 -97.74789 26985 ft 435 kts 169°
2026-04-14 13:40 21.78835 -97.74081 27439 ft 437 kts 169°
2026-04-14 13:40 21.75857 -97.73365 27871 ft 439 kts 169°
2026-04-14 13:41 21.72869 -97.72641 28281 ft 441 kts 169°
2026-04-14 13:41 21.69869 -97.71913 28675 ft 443 kts 169°
2026-04-14 13:41 21.66847 -97.71178 29034 ft 445 kts 169°
2026-04-14 13:41 21.63834 -97.70445 29563 ft 443 kts 170°
2026-04-14 13:42 21.60838 -97.69715 30124 ft 440 kts 170°
2026-04-14 13:42 21.57858 -97.68992 30526 ft 438 kts 170°
2026-04-14 13:42 21.54885 -97.68271 30901 ft 437 kts 171°
2026-04-14 13:42 21.51923 -97.67550 31299 ft 436 kts 171°
2026-04-14 13:43 21.48969 -97.66833 31689 ft 434 kts 171°
2026-04-14 13:43 21.46039 -97.66122 32097 ft 426 kts 171°
2026-04-14 13:43 21.43194 -97.65429 32008 ft 410 kts 171°
2026-04-14 13:43 21.40504 -97.64774 31952 ft 394 kts 171°
2026-04-14 13:44 21.37839 -97.64128 32085 ft 383 kts 172°
2026-04-14 13:44 21.32589 -97.62868 32056 ft 392 kts 172°
2026-04-14 13:45 21.27264 -97.61582 32059 ft 392 kts 172°
2026-04-14 13:45 21.21938 -97.60294 32029 ft 392 kts 172°
2026-04-14 13:46 21.16619 -97.59010 32030 ft 392 kts 172°
2026-04-14 13:46 21.11295 -97.57726 32028 ft 392 kts 172°
2026-04-14 13:47 21.05962 -97.56442 32023 ft 393 kts 171°
2026-04-14 13:47 21.00626 -97.55156 32029 ft 393 kts 171°
2026-04-14 13:48 20.95322 -97.53880 32022 ft 393 kts 171°
2026-04-14 13:48 20.89983 -97.52596 32033 ft 393 kts 171°
2026-04-14 13:49 20.84639 -97.51311 32039 ft 393 kts 171°
2026-04-14 13:49 20.79294 -97.50028 32049 ft 394 kts 171°
2026-04-14 13:50 20.73946 -97.48744 32058 ft 394 kts 171°
2026-04-14 13:50 20.68594 -97.47461 32063 ft 394 kts 171°
2026-04-14 13:51 20.63250 -97.46501 32074 ft 389 kts 184°
2026-04-14 13:51 20.60583 -97.46812 32074 ft 384 kts 197°
2026-04-14 13:51 20.58092 -97.47762 32087 ft 380 kts 209°
2026-04-14 13:51 20.55887 -97.49294 32104 ft 378 kts 221°
2026-04-14 13:52 20.54059 -97.51293 32115 ft 377 kts 230°
2026-04-14 13:52 20.50698 -97.55582 32038 ft 376 kts 231°
2026-04-14 13:53 20.47389 -97.59906 32040 ft 376 kts 231°
2026-04-14 13:53 20.44080 -97.64231 32026 ft 376 kts 231°
2026-04-14 13:54 20.40768 -97.68558 32000 ft 377 kts 231°
2026-04-14 13:54 20.37454 -97.72879 31990 ft 376 kts 231°
2026-04-14 13:55 20.34163 -97.77174 31995 ft 376 kts 231°
2026-04-14 13:55 20.30848 -97.81496 31997 ft 376 kts 231°
2026-04-14 13:56 20.27532 -97.85812 31992 ft 375 kts 231°
2026-04-14 13:56 20.24222 -97.90122 31993 ft 376 kts 231°
2026-04-14 13:57 20.20930 -97.94400 32011 ft 375 kts 231°
2026-04-14 13:57 20.17617 -97.98705 32008 ft 375 kts 231°
2026-04-14 13:58 20.14311 -98.03001 32008 ft 375 kts 231°
2026-04-14 13:58 20.10977 -98.07283 31793 ft 380 kts 230°
2026-04-14 13:58 20.09264 -98.09418 31561 ft 378 kts 230°
2026-04-14 13:59 20.07556 -98.11547 31201 ft 381 kts 230°
2026-04-14 13:59 20.05826 -98.13711 30643 ft 385 kts 230°
2026-04-14 13:59 20.04089 -98.15884 30177 ft 384 kts 230°
2026-04-14 13:59 20.02565 -98.18192 29969 ft 381 kts 243°
2026-04-14 14:00 20.01663 -98.20842 29823 ft 383 kts 256°
2026-04-14 14:00 20.01075 -98.23621 29713 ft 387 kts 256°
2026-04-14 14:00 20.00495 -98.26417 29646 ft 387 kts 257°
2026-04-14 14:00 19.99923 -98.29215 29509 ft 388 kts 257°
2026-04-14 14:01 19.99357 -98.32015 29441 ft 388 kts 257°
2026-04-14 14:01 19.98792 -98.34818 29323 ft 388 kts 257°
2026-04-14 14:01 19.98226 -98.37623 29217 ft 389 kts 257°
2026-04-14 14:02 19.97091 -98.43238 29005 ft 389 kts 257°
2026-04-14 14:02 19.95957 -98.48826 28805 ft 388 kts 257°
2026-04-14 14:02 19.95388 -98.51626 28700 ft 388 kts 257°
2026-04-14 14:03 19.94817 -98.54427 28610 ft 387 kts 257°
2026-04-14 14:03 19.94247 -98.57228 28502 ft 387 kts 257°
2026-04-14 14:03 19.93677 -98.60019 28397 ft 387 kts 257°
2026-04-14 14:04 19.92534 -98.65608 28193 ft 386 kts 257°
2026-04-14 14:04 19.91392 -98.71176 28026 ft 385 kts 256°
2026-04-14 14:04 19.90851 -98.73978 27749 ft 388 kts 260°
2026-04-14 14:05 19.90489 -98.76808 27443 ft 386 kts 262°
2026-04-14 14:05 19.90174 -98.79651 26927 ft 387 kts 262°
2026-04-14 14:05 19.89870 -98.82486 26427 ft 385 kts 262°
2026-04-14 14:05 19.89569 -98.85260 25966 ft 382 kts 262°
2026-04-14 14:06 19.89259 -98.88050 25489 ft 379 kts 262°
2026-04-14 14:06 19.89036 -98.90844 24973 ft 379 kts 268°
2026-04-14 14:06 19.89143 -98.93641 24506 ft 379 kts 274°
2026-04-14 14:06 19.89378 -98.96427 23987 ft 379 kts 275°
2026-04-14 14:07 19.89609 -98.99217 23485 ft 377 kts 274°
2026-04-14 14:07 19.89818 -99.01975 23008 ft 374 kts 274°
2026-04-14 14:07 19.90011 -99.04728 22505 ft 372 kts 274°
2026-04-14 14:07 19.90198 -99.07471 22001 ft 371 kts 274°
2026-04-14 14:08 19.90380 -99.10204 21500 ft 370 kts 274°
2026-04-14 14:08 19.90562 -99.12929 20982 ft 369 kts 274°
2026-04-14 14:08 19.90682 -99.14729 20646 ft 368 kts 274°
2026-04-14 14:08 19.90920 -99.18307 19975 ft 365 kts 274°
2026-04-14 14:09 19.91098 -99.20992 19454 ft 364 kts 274°
2026-04-14 14:09 19.91217 -99.22799 19117 ft 361 kts 274°
2026-04-14 14:09 19.91392 -99.25448 18608 ft 357 kts 274°
2026-04-14 14:09 19.91562 -99.28057 18231 ft 349 kts 273°
2026-04-14 14:10 19.91349 -99.30554 18028 ft 334 kts 258°
2026-04-14 14:10 19.90792 -99.32905 17934 ft 317 kts 254°
2026-04-14 14:10 19.90199 -99.35126 17629 ft 317 kts 254°
2026-04-14 14:10 19.89619 -99.37359 17385 ft 312 kts 255°
2026-04-14 14:11 19.89068 -99.39560 17380 ft 307 kts 255°
2026-04-14 14:11 19.88523 -99.41770 17392 ft 312 kts 256°
2026-04-14 14:11 19.87970 -99.44014 17397 ft 314 kts 254°
2026-04-14 14:11 19.87022 -99.46090 17408 ft 315 kts 231°
2026-04-14 14:12 19.85566 -99.47832 17450 ft 315 kts 225°
2026-04-14 14:12 19.84033 -99.49481 17578 ft 311 kts 224°
2026-04-14 14:12 19.82495 -99.51134 17646 ft 321 kts 225°
2026-04-14 14:12 19.80932 -99.52836 17342 ft 318 kts 225°
2026-04-14 14:13 19.79335 -99.54423 17286 ft 314 kts 212°
2026-04-14 14:13 19.77316 -99.55206 17135 ft 311 kts 182°
2026-04-14 14:13 19.75212 -99.54848 16926 ft 308 kts 153°
2026-04-14 14:13 19.73569 -99.53458 16697 ft 303 kts 125°
2026-04-14 14:14 19.72554 -99.51519 16480 ft 301 kts 113°
2026-04-14 14:14 19.71638 -99.49515 16192 ft 302 kts 116°
2026-04-14 14:14 19.70629 -99.47566 15935 ft 300 kts 118°
2026-04-14 14:14 19.69578 -99.45660 15688 ft 299 kts 118°
2026-04-14 14:15 19.68500 -99.43774 15451 ft 298 kts 119°
2026-04-14 14:15 19.67430 -99.41929 15214 ft 298 kts 119°
2026-04-14 14:15 19.66335 -99.40058 14971 ft 298 kts 119°
2026-04-14 14:15 19.65237 -99.38196 14737 ft 298 kts 119°
2026-04-14 14:16 19.64137 -99.36335 14512 ft 297 kts 119°
2026-04-14 14:16 19.63160 -99.34689 14313 ft 297 kts 119°
2026-04-14 14:16 19.62066 -99.32836 14106 ft 296 kts 119°
2026-04-14 14:17 19.59961 -99.29353 13635 ft 272 kts 126°
2026-04-14 14:17 19.58577 -99.27978 13460 ft 274 kts 140°
2026-04-14 14:17 19.57026 -99.26777 13184 ft 277 kts 143°
2026-04-14 14:17 19.55444 -99.25602 12866 ft 277 kts 143°
2026-04-14 14:18 19.53884 -99.24420 12575 ft 276 kts 142°
2026-04-14 14:18 19.52225 -99.23460 12152 ft 269 kts 164°
2026-04-14 14:18 19.50406 -99.23065 11931 ft 264 kts 172°
2026-04-14 14:18 19.48572 -99.22838 11580 ft 266 kts 173°
2026-04-14 14:19 19.46754 -99.22618 11221 ft 262 kts 173°
2026-04-14 14:19 19.44964 -99.22380 10946 ft 255 kts 173°
2026-04-14 14:19 19.43241 -99.22096 10568 ft 249 kts 166°
2026-04-14 14:19 19.41649 -99.21419 10201 ft 244 kts 153°
2026-04-14 14:20 19.40201 -99.20544 9876 ft 235 kts 144°
2026-04-14 14:20 19.39094 -99.19319 9615 ft 225 kts 123°
2026-04-14 14:20 19.38519 -99.17859 9447 ft 209 kts 101°
2026-04-14 14:20 19.38514 -99.16355 9197 ft 203 kts 77°
2026-04-14 14:21 19.39045 -99.15030 8913 ft 184 kts 60°
2026-04-14 14:21 19.39666 -99.13988 8703 ft 154 kts 56°
2026-04-14 14:21 19.40223 -99.13070 8343 ft 144 kts 59°
2026-04-14 14:21 19.40716 -99.12168 8030 ft 141 kts 60°
2026-04-14 14:22 19.41205 -99.11288 7949 ft 137 kts 59°
2026-04-14 14:22 19.41686 -99.10411 7824 ft 141 kts 60°
2026-04-14 14:22 19.42181 -99.09513 7640 ft 142 kts 59°
2026-04-14 14:22 19.42686 -99.08615 7416 ft 141 kts 60°
2026-04-14 14:23 19.43174 -99.07739 7306 ft 127 kts 59°
2026-04-14 14:23 19.43555 -99.07060 7301 ft 85 kts 59°
2026-04-14 14:23 19.43775 -99.06657 7301 ft 31 kts 77°
2026-04-14 14:23 19.43705 -99.06617 7301 ft 10 kts 201°
2026-04-14 14:24 19.43694 -99.06622 7301 ft 3 kts 206°
2026-04-14 14:24 19.43626 -99.06659 7301 ft 18 kts 208°
2026-04-14 14:24 19.43515 -99.06722 7301 ft 18 kts 207°
2026-04-14 14:24 19.43421 -99.06804 7301 ft 17 kts 245°
2026-04-14 14:25 19.43373 -99.06918 7301 ft 17 kts 239°
2026-04-14 14:25 19.43309 -99.07028 7301 ft 20 kts 238°
2026-04-14 14:25 19.43261 -99.07170 7301 ft 21 kts 264°
2026-04-14 14:25 19.43215 -99.07321 7301 ft 26 kts 239°
2026-04-14 14:26 19.43121 -99.07485 7301 ft 26 kts 238°
2026-04-14 14:26 19.43029 -99.07646 7301 ft 26 kts 238°
2026-04-14 14:26 19.42923 -99.07795 7301 ft 25 kts 225°
2026-04-14 14:26 19.42790 -99.07881 7301 ft 22 kts 216°
2026-04-14 14:27 19.42709 -99.08006 7301 ft 20 kts 236°
2026-04-14 14:27 19.42633 -99.08138 7301 ft 21 kts 239°
2026-04-14 14:27 19.42557 -99.08272 7301 ft 20 kts 234°
2026-04-14 14:27 19.42489 -99.08269 7301 ft 12 kts 152°
2026-04-14 14:28 19.42399 -99.08215 7301 ft 21 kts 150°
2026-04-14 14:28 19.42246 -99.08204 7301 ft 22 kts 178°
2026-04-14 14:28 19.42180 -99.08141 7301 ft 12 kts 122°
2026-04-14 14:28 19.42123 -99.08041 7301 ft 18 kts 120°
2026-04-14 14:29 19.42075 -99.07997 7301 ft 3 kts 207°
2026-04-14 14:29 19.42054 -99.08010 7301 ft 0 kts 210°